DB0LC-2 Weather Reports


Display with metric or nautical units.
time (UTC)temp
F
wind
direction
speed
MPH
gust
MPH
rain 1hr
in
rain 24hr
in
rain mn
in
humidity
%
barometer
mb
20260902193536 68 0 0.0 0.0 0.00 0.00 0.00 60 919.2
20260902192444 67 0 0.0 0.0 0.00 0.00 0.00 59 919.2
20260902191411 68 0 0.0 0.0 0.00 0.00 0.00 58 919.2
20260902190346 68 0 0.0 0.0 0.00 0.00 0.00 57 919.3
20260902185332 68 0 0.0 0.0 0.00 0.00 0.00 59 919.1
20260902184307 68 0 0.0 0.0 0.00 0.00 0.00 58 919.1
20260902183244 68 0 0.0 0.0 0.00 0.00 0.00 59 918.9
20260902181153 68 0 0.0 0.0 0.00 0.00 0.00 56 918.9
20260902180141 68 0 0.0 0.0 0.00 0.00 0.00 59 918.8
20260902175120 68 0 0.0 0.0 0.00 0.00 0.00 58 918.6
20260902174051 68 0 0.0 0.0 0.00 0.00 0.00 60 918.6
20260902173038 68 0 0.0 0.0 0.00 0.00 0.00 59 918.5
20260902172038 68 0 0.0 0.0 0.00 0.00 0.00 56 918.6
20260902171002 68 0 0.0 0.0 0.00 0.00 0.00 60 918.4
20260902165933 68 0 0.0 0.0 0.00 0.00 0.00 57 918.4
20260902164854 68 0 0.0 0.0 0.00 0.00 0.00 59 918.4
20260902163828 68 0 0.0 0.0 0.00 0.00 0.00 58 918.4
20260902162805 68 0 0.0 0.0 0.00 0.00 0.00 59 918.4
20260902161717 68 0 0.0 0.0 0.00 0.00 0.00 59 918.3
20260902160702 68 0 0.0 0.0 0.00 0.00 0.00 57 918.3
20260902155615 68 0 0.0 0.0 0.00 0.00 0.00 59 918.2
20260902154600 68 0 0.0 0.0 0.00 0.00 0.00 58 918.2
20260902153536 69 0 0.0 0.0 0.00 0.00 0.00 59 918.2
20260902152511 68 0 0.0 0.0 0.00 0.00 0.00 59 918.3
20260902151511 68 0 0.0 0.0 0.00 0.00 0.00 56 918.2
20260902150444 68 0 0.0 0.0 0.00 0.00 0.00 59 918.2
20260902145433 68 0 0.0 0.0 0.00 0.00 0.00 57 918.3
20260902144419 69 0 0.0 0.0 0.00 0.00 0.00 59 918.3
20260902143343 68 0 0.0 0.0 0.00 0.00 0.00 59 918.4
20260902142319 68 0 0.0 0.0 0.00 0.00 0.00 56 918.2
20260902141254 68 0 0.0 0.0 0.00 0.00 0.00 59 918.2
20260902140230 68 0 0.0 0.0 0.00 0.00 0.00 56 918.3
20260902135230 68 0 0.0 0.0 0.00 0.00 0.00 59 918.4
20260902135228 68 0 0.0 0.0 0.00 0.00 0.00 59 918.3
20260902134141 68 0 0.0 0.0 0.00 0.00 0.00 58 918.3
20260902132029 68 0 0.0 0.0 0.00 0.00 0.00 59 918.5
20260902130949 68 0 0.0 0.0 0.00 0.00 0.00 56 918.4
20260902125927 68 0 0.0 0.0 0.00 0.00 0.00 59 918.5
20260902124902 68 0 0.0 0.0 0.00 0.00 0.00 57 918.5
20260902124900 68 0 0.0 0.0 0.00 0.00 0.00 57 918.4
20260902123823 68 0 0.0 0.0 0.00 0.00 0.00 59 918.6
20260902121700 68 0 0.0 0.0 0.00 0.00 0.00 59 918.7
20260902115555 69 0 0.0 0.0 0.00 0.00 0.00 58 918.9
20260902114522 68 0 0.0 0.0 0.00 0.00 0.00 59 918.9
20260902113509 68 0 0.0 0.0 0.00 0.00 0.00 57 919.0
20260902111440 68 0 0.0 0.0 0.00 0.00 0.00 59 919.0
20260902110440 68 0 0.0 0.0 0.00 0.00 0.00 55 919.1
20260902104342 68 0 0.0 0.0 0.00 0.00 0.00 58 919.2
20260902103302 69 0 0.0 0.0 0.00 0.00 0.00 60 919.1
20260902102237 68 0 0.0 0.0 0.00 0.00 0.00 59 919.3
20260902101213 68 0 0.0 0.0 0.00 0.00 0.00 56 919.3
20260902100118 68 0 0.0 0.0 0.00 0.00 0.00 60 919.1
20260902095046 68 0 0.0 0.0 0.00 0.00 0.00 59 919.2
20260902094023 68 0 0.0 0.0 0.00 0.00 0.00 57 919.1
20260902092957 68 0 0.0 0.0 0.00 0.00 0.00 60 919.1
20260902091920 68 0 0.0 0.0 0.00 0.00 0.00 59 918.9
20260902090845 68 0 0.0 0.0 0.00 0.00 0.00 59 919.0
20260902085806 68 0 0.0 0.0 0.00 0.00 0.00 60 918.9
20260902084743 68 0 0.0 0.0 0.00 0.00 0.00 57 918.9
20260902083719 68 0 0.0 0.0 0.00 0.00 0.00 59 919.0
20260902083716 68 0 0.0 0.0 0.00 0.00 0.00 59 919.0
20260902082649 68 0 0.0 0.0 0.00 0.00 0.00 59 918.8
20260902081636 68 0 0.0 0.0 0.00 0.00 0.00 56 919.1
20260902080651 68 0 0.0 0.0 0.00 0.00 0.00 59 918.8
20260902073532 68 0 0.0 0.0 0.00 0.00 0.00 59 918.6
20260902073530 68 0 0.0 0.0 0.00 0.00 0.00 59 918.7
20260902071424 68 0 0.0 0.0 0.00 0.00 0.00 56 918.8
20260902070349 68 0 0.0 0.0 0.00 0.00 0.00 59 918.6
20260902070347 68 0 0.0 0.0 0.00 0.00 0.00 59 918.7
20260902065337 68 0 0.0 0.0 0.00 0.00 0.00 60 918.6
20260902064336 67 0 0.0 0.0 0.00 0.00 0.00 59 918.6
20260902063315 68 0 0.0 0.0 0.00 0.00 0.00 58 918.5
20260902063312 68 0 0.0 0.0 0.00 0.00 0.00 58 918.5
20260902062246 68 0 0.0 0.0 0.00 0.00 0.00 60 918.5
20260902061158 68 0 0.0 0.0 0.00 0.00 0.00 59 918.4
20260902060134 68 0 0.0 0.0 0.00 0.00 0.00 56 918.6
20260902060132 68 0 0.0 0.0 0.00 0.00 0.00 56 918.4
20260902055043 68 0 0.0 0.0 0.00 0.00 0.00 60 918.5
20260902054031 67 0 0.0 0.0 0.00 0.00 0.00 59 918.3
20260902053000 68 0 0.0 0.0 0.00 0.00 0.00 55 918.2
20260902051931 68 0 0.0 0.0 0.00 0.00 0.00 60 918.3
20260902050856 68 0 0.0 0.0 0.00 0.00 0.00 59 918.2
20260902045816 68 0 0.0 0.0 0.00 0.00 0.00 56 918.1
20260902043711 68 0 0.0 0.0 0.00 0.00 0.00 60 918.2
20260902042702 68 0 0.0 0.0 0.00 0.00 0.00 56 918.1
20260902035539 68 0 0.0 0.0 0.00 0.00 0.00 56 918.0
20260902032434 67 0 0.0 0.0 0.00 0.00 0.00 58 918.2
20260902032431 67 0 0.0 0.0 0.00 0.00 0.00 58 918.2
20260902031345 69 0 0.0 0.0 0.00 0.00 0.00 59 918.1
20260902030345 68 0 0.0 0.0 0.00 0.00 0.00 60 918.1
20260902025334 67 0 0.0 0.0 0.00 0.00 0.00 59 918.2
20260902024333 68 0 0.0 0.0 0.00 0.00 0.00 56 918.2
20260902023333 68 0 0.0 0.0 0.00 0.00 0.00 59 918.2
20260902022330 67 0 0.0 0.0 0.00 0.00 0.00 59 918.1
20260902021232 68 0 0.0 0.0 0.00 0.00 0.00 54 918.2
20260902020154 68 0 0.0 0.0 0.00 0.00 0.00 60 918.3
20260902015105 68 0 0.0 0.0 0.00 0.00 0.00 59 918.4
20260902014025 68 0 0.0 0.0 0.00 0.00 0.00 57 918.4
20260902012953 68 0 0.0 0.0 0.00 0.00 0.00 60 918.4
20260902011924 68 0 0.0 0.0 0.00 0.00 0.00 59 918.4
20260902011922 68 0 0.0 0.0 0.00 0.00 0.00 59 918.5
20260902005822 68 0 0.0 0.0 0.00 0.00 0.00 60 918.4
20260902004812 68 0 0.0 0.0 0.00 0.00 0.00 60 918.5
20260902004810 68 0 0.0 0.0 0.00 0.00 0.00 60 918.4
20260902003749 68 0 0.0 0.0 0.00 0.00 0.00 56 918.3
20260902002709 68 0 0.0 0.0 0.00 0.00 0.00 60 918.5
20260902001613 67 0 0.0 0.0 0.00 0.00 0.00 59 918.6
20260902000602 69 0 0.0 0.0 0.00 0.00 0.00 58 918.5
20260901235539 68 0 0.0 0.0 0.00 0.00 0.00 60 918.6
20260901234506 67 0 0.0 0.0 0.00 0.00 0.00 59 918.5
20260901233447 68 0 0.0 0.0 0.00 0.00 0.00 55 918.7
20260901232422 68 0 0.0 0.0 0.00 0.00 0.00 60 918.7
20260901231412 67 0 0.0 0.0 0.00 0.00 0.00 59 918.7
20260901230346 68 0 0.0 0.0 0.00 0.00 0.00 57 918.7
20260901225309 68 0 0.0 0.0 0.00 0.00 0.00 60 918.8
20260901224245 67 0 0.0 0.0 0.00 0.00 0.00 59 918.8
20260901222155 68 0 0.0 0.0 0.00 0.00 0.00 60 918.9
20260901221110 67 0 0.0 0.0 0.00 0.00 0.00 58 919.0
20260901221107 67 0 0.0 0.0 0.00 0.00 0.00 58 919.0
20260901220030 69 0 0.0 0.0 0.00 0.00 0.00 60 919.2
20260901213905 68 0 0.0 0.0 0.00 0.00 0.00 57 919.1
20260901212838 68 0 0.0 0.0 0.00 0.00 0.00 60 919.0
20260901211815 68 0 0.0 0.0 0.00 0.00 0.00 60 919.0
20260901210804 68 0 0.0 0.0 0.00 0.00 0.00 56 919.3
20260901204726 68 0 0.0 0.0 0.00 0.00 0.00 59 919.1
20260901203715 68 0 0.0 0.0 0.00 0.00 0.00 55 919.1
20260901201534 68 0 0.0 0.0 0.00 0.00 0.00 59 919.0
20260901200519 68 0 0.0 0.0 0.00 0.00 0.00 55 919.1
20260901195515 68 0 0.0 0.0 0.00 0.00 0.00 60 919.0